SCP
0 0 0 -0 -0 0 0 -0 0 0 0 0 -0 -0 0 0 0 0 0 0 0 0
0 0 0 0 -0 -0 -0 0 0 0 0 0 0 0 -0 -0 -0 -0 0 0 -0 0
0 0 0 0 -0 -0 -0 0 0 0 0 0 0 0 0 0 -0 -0 -0 -0 0 0
0 0 0 0 0 0 0 0 0 0 0 0 0 0 0 0 0 0 0 0 0 0
0 0 0 0 0 0 0 0 0 0 0 0 0 0 0 0 0 0 0 0 0 0
0 0 0 0 0 0 0 0 0 0 0 0 0 0 0 0 0 0 0 0 0 0
0 0 0 0 0 0 0 -0 0 0 0 0 0 0 0 0 0 0 0 0 0 0
0 0 0 0 0 0 0 0 0 0 0 0 0 0 0 0 0 0 0 0 0 0
0 0 0 0 0 0 0 0 0 0 0 0 0 0 0 0 0 0 0 0 0 0
0 0 0 0 0 0 0 0 -0 0 0 0 0 0 0 0 -0 -0 0 0 0 0
0 0 0 0 0 0 0 0 -0 0 0 0 -0 -0 -0 -0 -0 -0 -0 -0 0 -0
0 0 0 -0 -0 0 0 -0 0 0 -0 -0 -0 -0 -0 -0 -0 -0 -0 -0 -0 -0
0 0 0 0 0 -0 0 0 0 0 0 0 0 0 0 -0 -0 0 -0 -0 -0 0
-0 0 0 0 0 -0 -0 -0 -0 -0 -0 0 -0 -0 -0 -0 0 0 0 -0 -0 -0
Wind_Speed_500mb
44 50 56 58 60 63 64 61 51 48 39 31 33 31 22 20 25 31 50 44 43 49
61 61 64 61 62 65 60 54 42 43 38 37 33 41 46 46 50 38 34 42 45 47
72 69 63 64 61 55 48 39 34 38 37 35 33 35 41 44 42 42 37 35 37 36
73 61 51 52 48 42 36 31 33 33 31 28 27 26 27 29 32 29 27 24 22 21
63 45 41 42 36 28 27 29 26 22 24 26 21 14 13 12 13 12 11 10 11 11
42 40 39 38 33 26 29 24 20 14 18 14 11 7 2 4 7 8 9 10 11 11
45 42 40 35 27 18 20 23 15 8 8 9 8 6 7 7 7 6 7 8 10 12
47 32 28 28 19 15 17 8 4 4 5 8 11 11 13 10 7 9 9 9 10 12
39 29 24 16 15 9 7 8 11 16 19 14 18 26 25 27 23 13 6 12 19 32
31 22 18 16 13 12 14 18 17 19 20 23 20 21 18 17 17 14 11 14 27 35
20 15 14 18 23 27 26 23 24 20 20 20 20 19 14 15 23 22 21 22 26 29
14 18 27 34 31 28 25 24 28 24 24 23 23 19 19 25 25 32 26 26 24 22
35 39 33 27 29 28 28 27 27 32 28 27 28 29 26 25 27 30 32 31 29 28
29 29 31 34 32 28 27 28 34 34 29 26 27 27 26 28 25 27 24 26 23 22
Wind_Direction_500mb
317 318 320 321 323 326 327 327 317 312 311 312 293 270 264 245 237 280 281 276 280 278
308 311 312 313 313 316 319 318 310 309 308 296 292 269 264 278 263 283 285 278 280 281
314 310 308 306 306 305 310 310 309 308 305 301 287 283 272 274 274 273 281 284 282 282
317 308 303 309 299 294 297 304 310 307 317 306 306 295 286 286 279 281 289 291 291 291
319 317 311 309 308 291 300 298 303 312 308 306 301 303 310 311 309 311 327 328 313 320
321 318 315 313 306 308 309 308 309 302 296 291 279 294 329 337 325 327 340 338 326 320
326 324 319 310 296 315 327 332 313 289 285 285 289 307 340 350 330 334 336 329 335 350
333 320 312 316 327 335 349 312 305 342 349 336 322 341 353 6 4 2 347 3 15 6
339 345 353 354 359 19 48 60 51 63 54 51 67 66 70 58 44 27 2 52 60 52
334 346 2 14 36 48 56 82 77 80 70 62 42 56 74 58 60 50 68 86 65 63
346 16 50 65 67 69 71 71 64 57 51 44 45 37 55 61 50 71 82 98 71 77
45 75 90 71 63 66 74 67 67 59 58 64 68 72 69 64 54 76 76 86 81 82
90 87 79 69 66 66 74 69 64 65 72 73 71 69 66 66 66 65 61 86 78 84
82 75 78 74 75 73 70 77 81 78 74 75 72 70 66 65 63 70 82 95 83 85
Wind_Speed_850mb
44 50 56 58 60 63 64 61 51 48 39 31 33 31 22 20 25 31 50 44 43 49
61 61 64 61 62 65 60 54 42 43 38 37 33 41 46 46 50 38 34 42 45 47
72 69 63 64 61 55 48 39 34 38 37 35 33 35 41 44 42 42 37 35 37 36
73 61 51 52 48 42 36 31 33 33 31 28 27 26 27 29 32 29 27 24 22 21
63 45 41 42 36 28 27 29 26 22 24 26 21 14 13 12 13 12 11 10 11 11
42 40 39 38 33 26 29 24 20 14 18 14 11 7 2 4 7 8 9 10 11 11
45 42 40 35 27 18 20 23 15 8 8 9 8 6 7 7 7 6 7 8 10 12
47 32 28 28 19 15 17 8 4 4 5 8 11 11 13 10 7 9 9 9 10 12
39 29 24 16 15 9 7 8 11 16 19 14 18 26 25 27 23 13 6 12 19 32
31 22 18 16 13 12 14 18 17 19 20 23 20 21 18 17 17 14 11 14 27 35
20 15 14 18 23 27 26 23 24 20 20 20 20 19 14 15 23 22 21 22 26 29
14 18 27 34 31 28 25 24 28 24 24 23 23 19 19 25 25 32 26 26 24 22
35 39 33 27 29 28 28 27 27 32 28 27 28 29 26 25 27 30 32 31 29 28
29 29 31 34 32 28 27 28 34 34 29 26 27 27 26 28 25 27 24 26 23 22
Wind_Direction_850mb
317 318 320 321 323 326 327 327 317 312 311 312 293 270 264 245 237 280 281 276 280 278
308 311 312 313 313 316 319 318 310 309 308 296 292 269 264 278 263 283 285 278 280 281
314 310 308 306 306 305 310 310 309 308 305 301 287 283 272 274 274 273 281 284 282 282
317 308 303 309 299 294 297 304 310 307 317 306 306 295 286 286 279 281 289 291 291 291
319 317 311 309 308 291 300 298 303 312 308 306 301 303 310 311 309 311 327 328 313 320
321 318 315 313 306 308 309 308 309 302 296 291 279 294 329 337 325 327 340 338 326 320
326 324 319 310 296 315 327 332 313 289 285 285 289 307 340 350 330 334 336 329 335 350
333 320 312 316 327 335 349 312 305 342 349 336 322 341 353 6 4 2 347 3 15 6
339 345 353 354 359 19 48 60 51 63 54 51 67 66 70 58 44 27 2 52 60 52
334 346 2 14 36 48 56 82 77 80 70 62 42 56 74 58 60 50 68 86 65 63
346 16 50 65 67 69 71 71 64 57 51 44 45 37 55 61 50 71 82 98 71 77
45 75 90 71 63 66 74 67 67 59 58 64 68 72 69 64 54 76 76 86 81 82
90 87 79 69 66 66 74 69 64 65 72 73 71 69 66 66 66 65 61 86 78 84
82 75 78 74 75 73 70 77 81 78 74 75 72 70 66 65 63 70 82 95 83 85